User: anonymous   Login
Location: Great Northern Moose Lodge
(44.6765°N, 71.1811°W)
Time: 00:19:56
(UTC-04:00)
Language:

Terra - Orbit

View from above orbital plane
View from above orbital plane
View from above satellite
View from above satellite

Ground track
Ground track

The orbit data is extracted from the following two-line orbital elements,

1 25994U 99068A   15216.76787282  .00000291  00000-0  74673-4 0  9996
2 25994 098.2104 290.6478 0001258 092.6845 267.4500 14.57118246831297
Epoch (UTC): 04 August 2015 18:25:44
Eccentricity: 0.0001258
inclination: 98.2104°
perigee height: 701 km
apogee height: 703 km
right ascension of ascending node: 290.6478°
argument of perigee: 92.6845°
revolutions per day: 14.57118246
mean anomaly at epoch: 267.4500°
orbit number at epoch: 83129

The dashed part of the orbit path shows where the satellite is in the earth's shadow,  

DLR